�������l�o���
Date,Time,MP-1(��Sv/h),MP-2(��Sv/h),MP-3(��Sv/h),MP-4(��Sv/h),MP-5(��Sv/h),MP-6(��Sv/h),MP-7(��Sv/h),MP-8(��Sv/h),����,����(m/s),���J
2019/02/18,00:00,0.780,1.156,0.800,1.486,1.068,0.446,0.792,0.748,���쐼,1.2,��
2019/02/18,00:10,0.779,1.158,0.799,1.485,1.069,0.444,0.791,0.747,�쐼,0.8,��
2019/02/18,00:20,0.780,1.159,0.799,1.486,1.069,0.445,0.793,0.749,���쐼,0.9,��
2019/02/18,00:30,0.780,1.158,0.800,1.485,1.069,0.444,0.791,0.749,�k,0.8,��
2019/02/18,00:40,0.778,1.156,0.800,1.483,1.068,0.444,0.791,0.749,�k,1.5,��
2019/02/18,00:50,0.778,1.157,0.799,1.485,1.069,0.444,0.791,0.748,�k,3.1,��
2019/02/18,01:00,0.779,1.157,0.799,1.484,1.071,0.445,0.788,0.749,�k,4.0,��
2019/02/18,01:10,0.780,1.156,0.801,1.485,1.070,0.445,0.790,0.747,�k�k��,2.0,��
2019/02/18,01:20,0.780,1.157,0.800,1.482,1.068,0.442,0.790,0.750,�k�k��,1.2,��
2019/02/18,01:30,0.778,1.157,0.799,1.484,1.070,0.443,0.790,0.749,��,2.9,��
2019/02/18,01:40,0.778,1.158,0.800,1.487,1.068,0.443,0.790,0.750,���k��,6.3,��
2019/02/18,01:50,0.778,1.155,0.799,1.485,1.066,0.443,0.789,0.749,���k��,7.2,��
2019/02/18,02:00,0.779,1.158,0.798,1.485,1.069,0.444,0.789,0.748,���k��,6.7,��
2019/02/18,02:10,0.779,1.157,0.800,1.486,1.070,0.445,0.789,0.750,���k��,4.9,��
2019/02/18,02:20,0.779,1.156,0.801,1.487,1.068,0.445,0.789,0.746,���k��,4.5,��
2019/02/18,02:30,0.780,1.157,0.800,1.486,1.071,0.443,0.790,0.748,���k��,2.6,��
2019/02/18,02:40,0.778,1.157,0.798,1.483,1.069,0.445,0.791,0.748,���k��,2.2,��
2019/02/18,02:50,0.779,1.157,0.800,1.484,1.068,0.444,0.790,0.749,���k��,0.9,��
2019/02/18,03:00,0.779,1.156,0.800,1.485,1.070,0.443,0.790,0.749,�k��,0.6,��
2019/02/18,03:10,0.781,1.156,0.798,1.486,1.068,0.444,0.791,0.749,���k��,1.1,��
2019/02/18,03:20,0.780,1.157,0.799,1.483,1.070,0.444,0.790,0.749,���k��,0.9,��
2019/02/18,03:30,0.779,1.155,0.799,1.487,1.068,0.444,0.791,0.748,�k,1.2,��
2019/02/18,03:40,0.781,1.156,0.801,1.484,1.067,0.446,0.791,0.748,�k��,2.5,��
2019/02/18,03:50,0.779,1.156,0.797,1.483,1.069,0.444,0.789,0.748,��,2.6,��
2019/02/18,04:00,0.779,1.157,0.798,1.483,1.067,0.444,0.789,0.749,���쐼,1.5,��
2019/02/18,04:10,0.778,1.156,0.797,1.484,1.068,0.443,0.788,0.748,��,1.4,��
2019/02/18,04:20,0.777,1.156,0.798,1.483,1.068,0.445,0.789,0.749,�쐼,1.2,��
2019/02/18,04:30,0.779,1.155,0.799,1.488,1.068,0.444,0.789,0.748,�쐼,1.8,��
2019/02/18,04:40,0.780,1.155,0.799,1.483,1.069,0.441,0.790,0.748,���쐼,2.5,��
2019/02/18,04:50,0.778,1.156,0.800,1.482,1.068,0.443,0.789,0.747,�쐼,2.5,��
2019/02/18,05:00,0.779,1.157,0.797,1.485,1.066,0.444,0.789,0.748,�쐼,0.9,��
2019/02/18,05:10,0.780,1.157,0.798,1.485,1.068,0.443,0.792,0.749,�k��,2.0,��
2019/02/18,05:20,0.778,1.154,0.798,1.484,1.068,0.445,0.789,0.747,���k��,3.4,��
2019/02/18,05:30,0.779,1.154,0.798,1.485,1.067,0.444,0.789,0.747,�k��,3.1,��
2019/02/18,05:40,0.777,1.154,0.798,1.485,1.069,0.443,0.789,0.748,���k��,3.2,��
2019/02/18,05:50,0.778,1.155,0.797,1.485,1.066,0.443,0.789,0.749,���k��,4.0,��
2019/02/18,06:00,0.778,1.155,0.799,1.484,1.068,0.444,0.790,0.749,���k��,4.4,��
2019/02/18,06:10,0.778,1.154,0.799,1.483,1.068,0.444,0.789,0.746,��,4.2,��
2019/02/18,06:20,0.776,1.156,0.799,1.483,1.066,0.443,0.788,0.748,��,3.5,��
2019/02/18,06:30,0.780,1.155,0.798,1.481,1.067,0.444,0.790,0.748,��,3.4,��
2019/02/18,06:40,0.779,1.155,0.801,1.483,1.067,0.442,0.789,0.749,��,4.0,��
2019/02/18,06:50,0.776,1.155,0.799,1.486,1.068,0.443,0.790,0.749,��,4.0,��
2019/02/18,07:00,0.778,1.156,0.798,1.484,1.068,0.444,0.789,0.749,��,3.3,��
2019/02/18,07:10,0.779,1.154,0.797,1.483,1.068,0.442,0.790,0.748,��,3.3,��
2019/02/18,07:20,0.777,1.153,0.796,1.482,1.069,0.443,0.789,0.749,��,2.5,��
2019/02/18,07:30,0.781,1.157,0.801,1.486,1.067,0.444,0.791,0.749,���쐼,2.5,��
2019/02/18,07:40,0.779,1.156,0.800,1.487,1.067,0.443,0.789,0.749,�쐼,3.4,��
2019/02/18,07:50,0.781,1.156,0.799,1.483,1.067,0.444,0.791,0.750,��,4.6,��
2019/02/18,08:00,0.780,1.156,0.800,1.483,1.068,0.442,0.793,0.749,���쐼,3.4,��
2019/02/18,08:10,0.780,1.158,0.800,1.485,1.068,0.444,0.793,0.750,��,3.8,��
2019/02/18,08:20,0.780,1.156,0.800,1.484,1.067,0.444,0.790,0.750,��,4.3,��
2019/02/18,08:30,0.781,1.159,0.793,1.483,1.070,0.444,0.792,0.750,��,3.6,��
2019/02/18,08:40,0.781,1.157,0.792,1.486,1.069,0.444,0.794,0.750,��,5.7,��
2019/02/18,08:50,0.780,1.158,0.793,1.485,1.065,0.444,0.793,0.749,��,7.0,��
2019/02/18,09:00,0.784,1.159,0.794,1.483,1.068,0.444,0.791,0.749,��,6.3,��
2019/02/18,09:10,0.781,1.156,0.795,1.484,1.069,0.445,0.794,0.749,���쐼,5.5,��
2019/02/18,09:20,0.783,1.156,0.795,1.483,1.069,0.446,0.793,0.750,��,7.0,��
2019/02/18,09:30,0.781,1.157,0.796,1.483,1.070,0.446,0.792,0.750,���쐼,5.2,��
2019/02/18,09:40,0.783,1.156,0.796,1.483,1.071,0.445,0.792,0.748,���쐼,7.7,��
2019/02/18,09:50,0.781,1.147,0.796,1.481,1.069,0.445,0.791,0.749,��,6.8,��
2019/02/18,10:00,0.781,1.145,0.795,1.483,1.068,0.446,0.789,0.750,��,5.7,��
2019/02/18,10:10,0.781,1.144,0.791,1.482,1.069,0.445,0.791,0.751,��,7.1,��
2019/02/18,10:20,0.782,1.134,0.795,1.481,1.071,0.446,0.791,0.751,���k��,6.9,��
2019/02/18,10:30,0.781,1.145,0.797,1.485,1.070,0.446,0.790,0.751,���k��,4.6,��
2019/02/18,10:40,0.783,1.143,0.796,1.481,1.073,0.445,0.787,0.752,���k��,5.9,��
2019/02/18,10:50,0.782,1.143,0.796,1.481,1.070,0.446,0.787,0.750,���k��,5.3,��
2019/02/18,11:00,0.784,1.147,0.797,1.486,1.070,0.447,0.788,0.752,���k��,4.5,��
2019/02/18,11:10,0.783,1.142,0.798,1.483,1.073,0.448,0.788,0.752,���k��,5.0,��
2019/02/18,11:20,0.783,1.147,0.795,1.484,1.073,0.446,0.790,0.752,��,5.3,��
2019/02/18,11:30,0.784,1.141,0.799,1.483,1.073,0.442,0.791,0.751,��,7.2,��
2019/02/18,11:40,0.784,1.143,0.801,1.485,1.072,0.445,0.791,0.749,��,6.1,��
2019/02/18,11:50,0.785,1.144,0.799,1.484,1.071,0.446,0.790,0.749,��,7.8,��
2019/02/18,12:00,0.785,1.146,0.803,1.487,1.071,0.445,0.790,0.751,���쐼,7.9,��
2019/02/18,12:10,0.783,1.151,0.799,1.488,1.073,0.447,0.792,0.750,��,9.1,��
2019/02/18,12:20,0.786,1.147,0.801,1.490,1.071,0.445,0.790,0.749,���k��,8.2,�L
2019/02/18,12:30,0.785,1.149,0.802,1.488,1.071,0.447,0.791,0.752,��,6.0,��
2019/02/18,12:40,0.786,1.149,0.801,1.491,1.072,0.447,0.791,0.751,��,8.3,��
2019/02/18,12:50,0.784,1.151,0.803,1.490,1.075,0.448,0.790,0.749,�k��,6.1,��
2019/02/18,13:00,0.786,1.149,0.801,1.490,1.072,0.447,0.792,0.750,�k�k��,6.8,��
2019/02/18,13:10,0.785,1.152,0.801,1.492,1.071,0.449,0.792,0.750,�k�k��,5.2,��
2019/02/18,13:20,0.783,1.150,0.800,1.490,1.073,0.448,0.791,0.750,�k�k��,4.3,��
2019/02/18,13:30,0.786,1.150,0.800,1.488,1.071,0.448,0.792,0.748,�k�k��,4.9,�L
2019/02/18,13:40,0.785,1.154,0.801,1.490,1.070,0.446,0.792,0.748,�k�k��,3.9,�L
2019/02/18,13:50,0.784,1.154,0.799,1.492,1.071,0.447,0.793,0.746,�k��,3.2,��
2019/02/18,14:00,0.786,1.155,0.797,1.490,1.070,0.448,0.791,0.749,�k,2.6,��
2019/02/18,14:10,0.785,1.154,0.799,1.489,1.070,0.447,0.791,0.747,���k��,4.4,��
2019/02/18,14:20,0.787,1.157,0.802,1.489,1.072,0.448,0.791,0.748,��,7.3,��
2019/02/18,14:30,0.785,1.157,0.802,1.490,1.073,0.446,0.793,0.748,���k��,8.9,��
2019/02/18,14:40,0.787,1.160,0.800,1.491,1.071,0.448,0.791,0.749,��,5.2,��
2019/02/18,14:50,0.785,1.158,0.803,1.489,1.070,0.448,0.791,0.749,��,7.0,��
2019/02/18,15:00,0.786,1.158,0.800,1.490,1.073,0.448,0.790,0.748,��,5.4,��
2019/02/18,15:10,0.787,1.157,0.799,1.489,1.073,0.446,0.791,0.749,�k��,3.4,��
2019/02/18,15:20,0.785,1.158,0.801,1.491,1.073,0.447,0.790,0.748,���k��,3.3,��
2019/02/18,15:30,0.784,1.159,0.798,1.491,1.075,0.446,0.792,0.748,���k��,3.3,��
2019/02/18,15:40,0.785,1.159,0.802,1.490,1.074,0.448,0.792,0.749,��,5.9,��
2019/02/18,15:50,0.784,1.159,0.801,1.491,1.074,0.447,0.793,0.747,��,6.3,��
2019/02/18,16:00,0.784,1.162,0.800,1.490,1.074,0.447,0.792,0.748,��,6.1,��
2019/02/18,16:10,0.785,1.161,0.802,1.491,1.072,0.448,0.792,0.750,��,6.5,��
2019/02/18,16:20,0.784,1.159,0.800,1.493,1.072,0.447,0.792,0.750,���쐼,6.7,��
2019/02/18,16:30,0.786,1.160,0.799,1.490,1.073,0.448,0.792,0.750,��,7.8,��
2019/02/18,16:40,0.785,1.159,0.800,1.489,1.072,0.448,0.790,0.750,���쐼,6.3,��
2019/02/18,16:50,0.783,1.161,0.800,1.491,1.072,0.447,0.790,0.751,���쐼,6.9,��
2019/02/18,17:00,0.783,1.158,0.800,1.489,1.073,0.446,0.791,0.750,��,7.4,��
2019/02/18,17:10,0.783,1.162,0.801,1.490,1.073,0.448,0.793,0.751,��,6.6,��
2019/02/18,17:20,0.783,1.160,0.799,1.492,1.073,0.448,0.791,0.752,��,6.6,��
2019/02/18,17:30,0.781,1.160,0.800,1.490,1.075,0.447,0.791,0.751,��,5.3,��
2019/02/18,17:40,0.784,1.159,0.801,1.489,1.075,0.448,0.792,0.750,���쐼,6.0,��
2019/02/18,17:50,0.782,1.156,0.801,1.490,1.075,0.448,0.791,0.750,��,6.8,��
2019/02/18,18:00,0.781,1.160,0.800,1.489,1.077,0.448,0.793,0.750,��,7.2,��
2019/02/18,18:10,0.783,1.159,0.801,1.488,1.075,0.447,0.793,0.751,��,6.8,��
2019/02/18,18:20,0.783,1.155,0.802,1.488,1.073,0.446,0.794,0.750,��,6.4,��
2019/02/18,18:30,0.781,1.155,0.800,1.489,1.075,0.445,0.793,0.749,��,6.8,��
2019/02/18,18:40,0.784,1.159,0.800,1.490,1.073,0.446,0.793,0.750,��,6.7,��
2019/02/18,18:50,0.782,1.158,0.801,1.491,1.075,0.446,0.792,0.752,���k��,7.0,��
2019/02/18,19:00,0.784,1.161,0.800,1.491,1.075,0.447,0.794,0.751,�k��,6.9,��
2019/02/18,19:10,0.784,1.160,0.800,1.490,1.074,0.446,0.792,0.749,�k��,7.5,��
2019/02/18,19:20,0.781,1.159,0.799,1.489,1.073,0.445,0.794,0.751,�k��,7.1,��
2019/02/18,19:30,0.782,1.159,0.802,1.489,1.073,0.446,0.791,0.750,�k��,6.5,��
2019/02/18,19:40,0.781,1.156,0.800,1.489,1.073,0.446,0.793,0.750,�k��,4.2,��
2019/02/18,19:50,0.782,1.160,0.800,1.491,1.073,0.446,0.792,0.750,�k��,4.4,��
2019/02/18,20:00,0.783,1.159,0.800,1.489,1.074,0.446,0.790,0.749,�k�k��,4.0,��
2019/02/18,20:10,0.782,1.158,0.799,1.489,1.072,0.446,0.792,0.749,�k��,3.2,��
2019/02/18,20:20,0.783,1.159,0.799,1.492,1.073,0.445,0.791,0.749,��,1.4,��
2019/02/18,20:30,0.782,1.159,0.799,1.492,1.073,0.445,0.793,0.749,��,1.9,��
2019/02/18,20:40,0.782,1.160,0.799,1.489,1.071,0.446,0.791,0.750,��,1.4,��
2019/02/18,20:50,0.783,1.158,0.797,1.488,1.073,0.444,0.790,0.750,���k��,0.8,��
2019/02/18,21:00,0.781,1.157,0.801,1.488,1.073,0.443,0.791,0.750,�k��,0.9,��
2019/02/18,21:10,0.780,1.158,0.798,1.489,1.072,0.444,0.790,0.749,�k�k��,0.8,��
2019/02/18,21:20,0.781,1.157,0.799,1.487,1.073,0.444,0.792,0.750,���k��,1.2,��
2019/02/18,21:30,0.782,1.155,0.798,1.488,1.074,0.446,0.793,0.749,�k��,1.5,��
2019/02/18,21:40,0.780,1.157,0.801,1.487,1.075,0.445,0.790,0.750,�k��,2.0,��
2019/02/18,21:50,0.780,1.157,0.798,1.487,1.074,0.444,0.791,0.751,��,1.7,��
2019/02/18,22:00,0.782,1.158,0.798,1.489,1.073,0.445,0.790,0.749,��,1.7,��
2019/02/18,22:10,0.780,1.158,0.799,1.487,1.072,0.443,0.790,0.749,���k��,3.1,��
2019/02/18,22:20,0.781,1.159,0.799,1.489,1.072,0.445,0.790,0.749,�k��,3.5,��
2019/02/18,22:30,0.782,1.157,0.801,1.488,1.073,0.444,0.790,0.749,�k��,4.1,��
2019/02/18,22:40,0.782,1.155,0.800,1.488,1.071,0.443,0.791,0.749,�k�k��,3.1,��
2019/02/18,22:50,0.781,1.157,0.796,1.488,1.073,0.444,0.790,0.750,�k�k��,3.1,��
2019/02/18,23:00,0.781,1.159,0.799,1.492,1.073,0.444,0.790,0.750,�k�k��,3.3,��
2019/02/18,23:10,0.781,1.157,0.797,1.488,1.072,0.445,0.790,0.749,�k�k��,4.7,��
2019/02/18,23:20,0.783,1.160,0.799,1.491,1.074,0.443,0.790,0.749,�k��,4.0,��
2019/02/18,23:30,0.782,1.159,0.800,1.488,1.073,0.444,0.790,0.748,�k��,6.1,��
2019/02/18,23:40,0.782,1.160,0.799,1.489,1.072,0.444,0.792,0.749,�k�k��,4.9,��
2019/02/18,23:50,0.781,1.156,0.798,1.489,1.072,0.444,0.790,0.749,�k�k��,4.8,��
